HA9HP Weather Reports


time (UTC)temp
C
wind
direction
speed
KPH
gust
KPH
rain 1hr
cm
rain 24hr
cm
rain mn
cm
humidity
%
barometer
mb
20260905234534 13 305 0.0 0.0 0.00 0.00 0.00 73 1019.7
20260905233022 13 305 0.0 3.2 0.00 0.00 0.00 73 1019.7
20260905231523 14 305 0.0 0.0 0.00 0.00 0.00 71 1019.7
20260905230027 15 305 0.0 3.2 0.00 0.00 0.00 69 1019.5
20260905224533 16 299 0.0 3.2 0.00 0.00 0.00 66 1019.4
20260905223035 17 342 0.0 4.8 0.00 0.00 0.00 64 1019.5
20260905221519 18 306 0.0 0.0 0.00 0.00 0.00 58 1019.5
20260905220028 20 332 3.2 6.4 0.00 0.00 0.00 54 1019.3
20260905214527 20 264 6.4 11.3 0.00 0.00 0.00 48 1019.1
20260905213032 21 267 4.8 14.5 0.00 0.00 0.00 49 1019.1
20260905211534 21 290 6.4 14.5 0.00 0.00 0.00 49 1018.8
20260905210028 21 305 8.0 12.9 0.00 0.00 0.00 48 1018.7
20260905204528 21 269 8.0 25.7 0.00 0.00 0.00 47 1018.8
20260905203031 20 292 9.7 14.5 0.00 0.00 0.00 48 1018.7
20260905201539 20 288 9.7 19.3 0.00 0.00 0.00 49 1018.7
20260905200029 18 319 1.6 8.0 0.00 0.00 0.00 59 1018.3
20260905194507 18 306 1.6 4.8 0.00 0.00 0.00 54 1018.2
20260905193008 20 346 0.0 9.7 0.00 0.00 0.00 50 1018.1
20260905191510 20 265 3.2 11.3 0.00 0.00 0.00 50 1018.1
20260905190018 21 246 3.2 20.9 0.00 0.00 0.00 49 1018.0
20260905184532 20 280 3.2 16.1 0.00 0.00 0.00 50 1017.8
20260905183005 20 264 8.0 14.5 0.00 0.00 0.00 51 1017.7
20260905181512 20 297 6.4 12.9 0.00 0.00 0.00 52 1017.4
20260905180012 21 270 4.8 11.3 0.00 0.00 0.00 52 1017.2
20260905174529 21 273 3.2 12.9 0.00 0.00 0.00 50 1017.2
20260905173026 21 286 8.0 14.5 0.00 0.00 0.00 49 1016.9
20260905171507 22 267 8.0 17.7 0.00 0.00 0.00 47 1016.7
20260905170010 22 281 8.0 14.5 0.00 0.00 0.00 45 1016.6
20260905164516 23 273 1.6 11.3 0.00 0.00 0.00 42 1016.5
20260905163023 23 263 1.6 6.4 0.00 0.00 0.00 38 1016.6
20260905161528 24 300 1.6 16.1 0.00 0.00 0.00 38 1016.4
20260905160021 25 305 4.8 12.9 0.00 0.00 0.00 37 1016.2
20260905154515 25 254 3.2 9.7 0.00 0.00 0.00 38 1016.2
20260905153021 25 244 3.2 11.3 0.00 0.00 0.00 37 1016.1
20260905151529 25 294 6.4 12.9 0.00 0.00 0.00 36 1016.1
20260905150019 25 265 6.4 16.1 0.00 0.00 0.00 35 1016.2
20260905144536 26 321 8.0 12.9 0.00 0.00 0.00 38 1016.2
20260905143024 25 305 6.4 14.5 0.00 0.00 0.00 40 1016.1
20260905141548 25 300 8.0 16.1 0.00 0.00 0.00 41 1016.1
20260905140028 25 275 4.8 17.7 0.00 0.00 0.00 43 1016.1
20260905134516 24 277 8.0 19.3 0.00 0.00 0.00 44 1016.4
20260905133016 24 285 6.4 16.1 0.00 0.00 0.00 48 1016.4
20260905131542 24 31 6.4 19.3 0.00 0.00 0.00 47 1016.3
20260905130028 25 327 4.8 9.7 0.00 0.00 0.00 47 1016.4
20260905124532 23 317 3.2 16.1 0.00 0.00 0.00 54 1016.7
20260905123012 22 281 4.8 16.1 0.00 0.00 0.00 64 1016.7
20260905121520 22 194 1.6 11.3 0.00 0.00 0.00 71 1016.8
20260905120028 21 278 1.6 6.4 0.00 0.00 0.00 72 1017.0
20260905114550 22 263 1.6 8.0 0.00 0.00 0.00 67 1016.9
20260905113031 22 184 1.6 4.8 0.00 0.00 0.00 64 1016.3
20260905111519 22 269 1.6 6.4 0.00 0.00 0.00 64 1016.8
20260905110027 22 166 3.2 9.7 0.00 0.00 0.00 65 1016.5
20260905104506 22 142 1.6 9.7 0.00 0.00 0.00 64 1016.5
20260905103008 22 157 1.6 4.8 0.00 0.00 0.00 66 1016.9
20260905101513 21 134 0.0 3.2 0.00 0.00 0.00 72 1017.0
20260905100007 21 17 1.6 3.2 0.00 0.00 0.00 75 1017.4
20260905094506 21 17 0.0 3.2 0.00 0.00 0.00 72 1017.8
20260905093009 21 360 0.0 6.4 0.00 0.00 0.00 71 1017.8
20260905091508 21 300 4.8 9.7 0.00 0.00 0.00 69 1017.7
20260905090010 21 325 4.8 8.0 0.00 0.00 0.00 68 1017.0
20260905084514 21 360 1.6 6.4 0.00 0.00 0.00 70 1016.6
20260905083010 21 13 4.8 14.5 0.00 0.00 0.00 65 1016.1
20260905081509 21 327 3.2 9.7 0.00 0.00 0.00 66 1016.3
20260905080017 21 27 3.2 9.7 0.00 0.00 0.00 63 1015.6
20260905074516 21 334 4.8 11.3 0.00 0.00 0.00 62 1015.6
20260905073012 22 9 4.8 11.3 0.00 0.00 0.00 61 1015.0
20260905071511 22 26 3.2 9.7 0.00 0.00 0.00 62 1014.7
20260905070012 22 339 4.8 11.3 0.00 0.00 0.00 58 1014.5
20260905064513 22 36 6.4 14.5 0.00 0.00 0.00 58 1014.4
20260905063011 21 352 1.6 8.0 0.00 0.00 0.00 60 1013.8
20260905061514 21 38 6.4 16.1 0.00 0.00 0.00 60 1013.8
20260905060016 21 352 4.8 14.5 0.00 0.00 0.00 61 1013.6
20260905054516 21 38 3.2 8.0 0.00 0.00 0.00 59 1013.0
20260905053015 21 15 1.6 8.0 0.00 0.00 0.00 59 1012.8
20260905051516 21 350 1.6 8.0 0.00 0.00 0.00 59 1012.7
20260905050019 21 138 1.6 6.4 0.00 0.00 0.00 58 1012.7
20260905044521 21 162 1.6 8.0 0.00 0.00 0.00 59 1012.6
20260905043015 20 204 3.2 9.7 0.00 0.00 0.00 59 1012.7
20260905041517 20 236 3.2 11.3 0.00 0.00 0.00 59 1012.7
20260905040022 20 184 4.8 12.9 0.00 0.00 0.00 60 1012.7
20260905034521 19 197 4.8 11.3 0.00 0.00 0.00 62 1012.4
20260905033029 17 171 3.2 9.7 0.00 0.00 0.00 68 1012.3
20260905031524 17 168 1.6 3.2 0.00 0.00 0.00 68 1012.4
20260905030020 17 181 0.0 3.2 0.00 0.00 0.00 68 1012.3
20260905024521 17 175 1.6 4.8 0.00 0.00 0.00 68 1012.4
20260905023038 17 180 1.6 3.2 0.00 0.00 0.00 68 1012.3
20260905021838 17 167 0.0 0.0 0.00 0.00 0.00 67 1012.5
20260905020028 17 179 1.6 6.4 0.00 0.00 0.00 67 1012.4
20260905014510 17 173 1.6 3.2 0.00 0.00 0.00 67 1012.3
20260905013013 17 166 1.6 3.2 0.00 0.00 0.00 69 1012.3
20260905011522 17 194 0.0 3.2 0.00 0.00 0.00 70 1012.3
20260905010004 17 172 0.0 4.8 0.00 0.00 0.00 70 1012.3
20260905004509 17 167 0.0 4.8 0.00 0.00 0.00 68 1012.5
20260905003014 17 135 1.6 4.8 0.00 0.00 0.00 69 1012.6
20260905001520 17 150 1.6 4.8 0.00 0.00 0.00 69 1012.7
20260905000028 17 140 0.0 3.2 0.00 0.00 0.00 69 1012.9